Regional Weather Roundup
Issued by NWS

Home | Current Version | Previous Version | Graphics & Text | Print | Product List | Glossary On
Versions: 1 2 3 4 5 6 7 8 9 10 11 12 13 14 15 16 17 18 19 20 21 22 23 24 25 26 27 28 29 30 31 32 33 34 35 36 37 38 39 40 41 42 43 44 45 46 47 48 49 50
666
ASUS45 KCYS 280610
RWRWY

WYOMING REGIONAL WEATHER ROUNDUP
NATIONAL WEATHER SERVICE CHEYENNE WY
1200 AM MDT THU JUL 28 2016

NOTE:  "FAIR" INDICATES FEW OR NO CLOUDS BELOW 12,000 FEET
WITH NO SIGNIFICANT WEATHER AND/OR OBSTRUCTIONS TO VISIBILITY.

WYZ001-280700-
YELLOWSTONE NATIONAL PARK

CITY           SKY/WX    TMP DP  RH WIND       PRES   REMARKS
LK YELLOWSTONE   N/A     56  42  59 VRB6      30.38S
6HR MIN TEMP:  47; 6HR MAX TEMP:  64; 6HR PCP:  0.05;

W YELLOWSTONE  NOT AVBL

$$
WYZ002>013-054>058-071-098>099-280700-
NORTHERN WYOMING

CITY           SKY/WX    TMP DP  RH WIND       PRES   REMARKS
JACKSON        FAIR      52  34  50 N7        30.24R
CODY           FAIR      68  48  49 N8        30.22F
GREYBULL       FAIR      77  51  40 N8        30.07S
6HR MIN TEMP:  77; 6HR MAX TEMP:  94; 6HR PCP: TRACE;

WORLAND        FAIR      69  52  54 SW5       30.11R
6HR MIN TEMP:  69; 6HR MAX TEMP:  91; 6HR PCP:  0.02;

SHERIDAN       FAIR      68  54  60 E5        30.16S
6HR MIN TEMP:  67; 6HR MAX TEMP:  90;

BUFFALO        FAIR      66  51  58 SE3       30.22F
6HR MIN TEMP:  65; 6HR MAX TEMP:  86; 6HR PCP:  0.02;

GILLETTE       MOCLDY    67  59  75 SE9       30.17S
6HR MIN TEMP:  66; 6HR MAX TEMP:  81;

HULETT         FAIR      63  55  77 S13       30.20F
NEWCASTLE      FAIR      63  54  72 E5        30.20R

$$
WYZ014>020-022>026-101>103-280700-
CENTRAL WYOMING

CITY           SKY/WX    TMP DP  RH WIND       PRES   REMARKS
BIG PINEY      FAIR      57  27  31 N9        30.30S
6HR MIN TEMP:  54; 6HR MAX TEMP:  88;

PINEDALE       FAIR      52  36  54 NW6       30.31S
DUBOIS         FAIR      57  27  30 NW9       30.29S
LANDER         FAIR      69  39  33 W6        30.19R
6HR MIN TEMP:  69; 6HR MAX TEMP:  90;

RIVERTON       FAIR      73  48  41 NE9G23    30.21R
6HR MIN TEMP:  72; 6HR MAX TEMP:  89;

CASPER         FAIR      67  54  63 E9        30.16S
6HR MIN TEMP:  67; 6HR MAX TEMP:  91;

DOUGLAS          N/A    N/A N/A N/A MISG      30.19F

$$
WYZ021-027>030-104>119-280700-
SOUTHERN WYOMING

CITY           SKY/WX    TMP DP  RH WIND       PRES   REMARKS
EVANSTON       FAIR      67  24  19 SE9       30.30F
6HR MIN TEMP:  67; 6HR MAX TEMP:  87;

KEMMERER         N/A     61  30  31 N9        30.32S
FORT BRIDGER   FAIR      64  21  19 S6        30.32F
ROCK SPRINGS   FAIR      71  20  14 W5        30.26S
6HR MIN TEMP:  69; 6HR MAX TEMP:  90;

DIXON          FAIR      56  33  41 CALM      30.26S
RAWLINS        FAIR      65  43  44 NE8       30.24R
6HR MIN TEMP:  59; 6HR MAX TEMP:  88;

SARATOGA       FAIR      57  30  35 S8        30.25F
LARAMIE        FAIR      64  50  60 SE18G26   30.31F
6HR MIN TEMP:  62; 6HR MAX TEMP:  84;

CHEYENNE       MOCLDY    65  57  75 SE10      30.30S
6HR MIN TEMP:  63; 6HR MAX TEMP:  81;

TORRINGTON     FAIR      64  61  90 E8        30.16F
6HR MIN TEMP:  64; 6HR MAX TEMP:  88; 6HR PCP:  0.06;

PINE BLUFFS    FAIR      63  55  77 E8        30.25S

$$




USA.gov is the U.S. government's official web portal to all federal, state and local government web resources and services.